RCAMPBELL Weather Reports


time (UTC)temp
F
wind
direction
speed
knots
gust
knots
rain 1hr
in
rain 24hr
in
rain mn
in
humidity
%
barometer
mb
20260505070049 57 185 19.1 31.3 0.00 0.00 0.00 79 1009.0
20260505064537 58 158 20.0 27.8 0.00 0.00 0.00 78 1008.9
20260505063034 58 163 19.1 30.4 0.00 0.00 0.00 79 1008.7
20260505061558 59 171 16.5 30.4 0.00 0.00 0.00 77 1008.7
20260505060041 59 179 19.1 28.7 0.00 0.00 0.00 77 1008.4
20260505054546 59 183 18.2 26.1 0.00 0.00 0.00 75 1008.3
20260505053037 59 182 18.2 26.9 0.00 0.00 0.00 77 1008.3
20260505051538 60 179 20.0 29.5 0.00 0.00 0.00 78 1008.0
20260505041537 61 174 12.2 21.7 0.00 0.00 0.00 79 1007.7
20260505040051 61 161 12.2 20.9 0.00 0.00 0.00 79 1007.5
20260505034543 61 189 13.0 18.2 0.00 0.00 0.00 80 1007.4
20260505033038 61 190 9.6 15.6 0.00 0.00 0.00 79 1007.2
20260505031547 63 187 7.8 12.2 0.00 0.00 0.00 75 1007.1
20260505030042 64 182 0.9 7.8 0.00 0.00 0.00 72 1007.0
20260505024537 65 159 5.2 9.6 0.00 0.00 0.00 71 1006.8
20260505023037 67 187 7.0 9.6 0.00 0.00 0.00 66 1007.0
20260505021537 67 168 7.8 14.8 0.00 0.00 0.00 65 1007.1
20260505020041 68 165 11.3 13.9 0.00 0.00 0.00 60 1007.0
20260505014542 68 149 9.6 16.5 0.00 0.00 0.00 64 1007.2
20260505013037 67 186 7.0 11.3 0.00 0.00 0.00 66 1007.3
20260505011539 68 190 4.3 7.8 0.00 0.00 0.00 65 1007.5
20260505010045 67 155 6.1 11.3 0.00 0.00 0.00 68 1007.5
20260505004538 68 184 8.7 13.9 0.00 0.00 0.00 65 1007.5
20260505003038 68 141 5.2 8.7 0.00 0.00 0.00 67 1007.6
20260505001538 69 138 4.3 7.0 0.00 0.00 0.00 64 1007.7
20260505000048 70 188 4.3 7.8 0.00 0.00 0.00 64 1007.7
20260504234536 71 199 6.1 11.3 0.00 0.00 0.00 61 1007.8
20260504233037 72 142 5.2 8.7 0.00 0.00 0.00 60 1007.8
20260504231538 72 121 3.5 7.0 0.00 0.00 0.00 58 1008.0
20260504230037 73 153 3.5 7.0 0.00 0.00 0.00 58 1008.1
20260504224537 72 188 4.3 6.1 0.00 0.00 0.00 55 1008.2
20260504223038 72 144 3.5 7.0 0.00 0.00 0.00 59 1008.2
20260504221540 72 155 5.2 7.8 0.00 0.00 0.00 59 1008.5
20260504220046 71 127 4.3 8.7 0.00 0.00 0.00 62 1008.5
20260504214538 71 194 5.2 8.7 0.00 0.00 0.00 62 1008.6
20260504213045 71 187 4.3 7.0 0.00 0.00 0.00 61 1008.7
20260504211542 70 163 4.3 8.7 0.00 0.00 0.00 60 1008.8
20260504210039 70 169 5.2 7.8 0.00 0.00 0.00 64 1008.9
20260504204542 69 172 5.2 9.6 0.00 0.00 0.00 65 1009.0
20260504203037 69 161 5.2 9.6 0.00 0.00 0.00 62 1009.0
20260504201538 69 171 5.2 8.7 0.00 0.00 0.00 67 1009.1
20260504200037 69 153 3.5 7.0 0.00 0.00 0.00 67 1009.1
20260504194538 68 182 3.5 7.8 0.00 0.00 0.00 70 1009.2
20260504193053 67 167 3.5 7.8 0.00 0.00 0.00 71 1009.2
20260504191537 68 175 3.5 7.0 0.00 0.00 0.00 71 1009.1
20260504190041 67 173 3.5 7.8 0.00 0.00 0.00 74 1009.2
20260504184537 67 140 4.3 7.8 0.00 0.00 0.00 74 1009.3
20260504183049 67 167 4.3 8.7 0.00 0.00 0.00 72 1009.2
20260504181538 67 145 3.5 7.8 0.00 0.00 0.00 71 1009.2
20260504180058 66 182 3.5 8.7 0.00 0.00 0.00 75 1009.2
20260504174538 64 193 4.3 7.0 0.00 0.00 0.00 79 1009.1
20260504173039 63 175 1.7 4.3 0.00 0.00 0.00 78 1009.3
20260504171538 62 150 1.7 3.5 0.00 0.00 0.00 76 1009.1
20260504081542 57 0 0.0 0.9 0.00 0.00 0.00 82 1008.1